Regional Weather Roundup
Issued by NWS

Home | Current Version | Previous Version | Graphics & Text | Print | Product List | Glossary On
Versions: 1 2 3 4 5 6 7 8 9 10 11 12 13 14 15 16 17 18 19 20 21 22 23 24 25 26 27 28 29 30 31 32 33 34 35 36 37 38 39 40 41 42 43 44 45 46 47 48 49 50
000
ASUS43 KBIS 290710
RWRND

NORTH DAKOTA REGIONAL WEATHER ROUNDUP
NATIONAL WEATHER SERVICE BISMARCK ND
200 AM CDT FRI MAY 29 2015

NOTE: "FAIR" INDICATES FEW OR NO CLOUDS BELOW 12,000 FEET WITH NO
SIGNIFICANT WEATHER AND/OR OBSTRUCTIONS TO VISIBILITY.


NDZ001>003-009>011-017-290800-
NORTHWEST NORTH DAKOTA

CITY           SKY/WX    TMP DP  RH WIND       PRES   REMARKS
WILLISTON      CLOUDY    49  37  63 N12       30.18R
MINOT          CLOUDY    49  41  74 N22       30.10R
MINOT AFB      CLOUDY    50  49  99 N21       30.10R
$$

NDZ018>021-031>035-040>046-290800-
SOUTHWEST NORTH DAKOTA

CITY           SKY/WX    TMP DP  RH WIND       PRES   REMARKS
BISMARCK       CLOUDY    56  50  80 N20G28    29.99R
DICKINSON      CLOUDY    52  47  83 N17G26    30.07R
GARRISON         N/A     51  44  77 N22G31    30.05R
HETTINGER ARPT CLOUDY    55  51  86 N16G24    30.04R
$$

NDZ004>008-012>016-024-026-027-054-290800-
NORTHEAST NORTH DAKOTA

CITY           SKY/WX    TMP DP  RH WIND       PRES   REMARKS
GRAND FORKS    CLOUDY    59  56  89 N18G24    29.90R
GRND FRKS AFB  CLOUDY    57  54  88 N21G31    29.91R
DEVILS LAKE    CLOUDY    54  45  71 N25       29.99R
$$

NDZ022-023-025-028>030-036>039-047>053-290800-
SOUTHEAST NORTH DAKOTA

CITY           SKY/WX    TMP DP  RH WIND       PRES   REMARKS
FARGO          LGT RAIN  63  61  93 S5        29.85R
JAMESTOWN      CLOUDY    63  58  83 N15G25    29.89R
$$




USA.gov is the U.S. government's official web portal to all federal, state and local government web resources and services.